Weather History for Fort Myers, FL

Change the Weather History Date:

Thursday, January 10, 2013

  Actual Average Record
Temperature  
Mean Temperature 76 °F 64 °F  
Max Temperature 85 °F 74 °F 86 °F (1975)
Min Temperature 67 °F 53 °F 32 °F (1970)
Degree Days  
Heating Degree Days 0 4  
Month to date heating degree days 0 40  
Since 1 July heating degree days 58 133  
Cooling Degree Days 11 3  
Month to date cooling degree days 75 30  
Year to date cooling degree days 75 30  
Growing Degree Days 26 (Base 50)    
Moisture  
Dew Point 63 °F    
Average Humidity 71    
Maximum Humidity 97    
Minimum Humidity 43    
Precipitation  
Precipitation 0.00 in 0.06 in 2.55 in (1991)
Month to date precipitation 0.46 0.63  
Year to date precipitation 0.46 0.63  
Sea Level Pressure  
Sea Level Pressure 30.24 in    
Wind  
Wind Speed 9 mph (ESE)    
Max Wind Speed 22 mph    
Max Gust Speed 30 mph    
Visibility 10 miles    
Events      
T = Trace of Precipitation, MM = Missing Value Source: NWS Daily Summary

Daily Weather History Graph

Daily Weather History Graph

Search for Another Location

Airport:

Trip Planner

Search our weather history database for the weather conditions in past years. The results will help you decide how hot, cold, wet, or windy it might be!

Date:

Astronomy

Jan. 10, 2013 Rise Set
Actual Time 7:17 AM EST 5:53 PM EST
Civil Twilight 6:52 AM EST 6:18 PM EST
Nautical Twilight 6:23 AM EST 6:46 PM EST
Astronomical Twilight 5:55 AM EST 7:14 PM EST
Moon 5:56 AM EST (1/10) 4:58 PM EST (1/10)
Length of Visible Light 11h 25m
Length of Day
10h 35m
Waning Crescent, 2% of the Moon is Illuminated
Jan 10
Waning Crescent
Jan 11
New
Jan 18
First Quarter
Jan 26
Full
Feb 3
Last Quarter

Hourly Weather History & Observations

Time (EST) Temp. Heat Index Dew Point Humidity Pressure Visibility Wind Dir Wind Speed Gust Speed Precip Events Conditions
12:53 AM 73.0 °F - 68.0 °F 84% 30.26 in 10.0 mi East 8.1 mph - N/A   Overcast
1:53 AM 73.0 °F - 68.0 °F 84% 30.26 in 10.0 mi East 9.2 mph - N/A   Overcast
2:53 AM 72.0 °F - 68.0 °F 87% 30.26 in 10.0 mi East 8.1 mph - N/A   Mostly Cloudy
3:53 AM 70.0 °F - 68.0 °F 93% 30.25 in 10.0 mi East 5.8 mph - N/A   Scattered Clouds
4:53 AM 70.0 °F - 66.9 °F 90% 30.25 in 10.0 mi East 8.1 mph - N/A   Clear
5:53 AM 69.1 °F - 66.9 °F 93% 30.26 in 8.0 mi East 4.6 mph - N/A   Clear
6:53 AM 69.1 °F - 66.9 °F 93% 30.26 in 8.0 mi East 8.1 mph - N/A   Clear
7:53 AM 69.1 °F - 66.9 °F 93% 30.27 in 7.0 mi East 5.8 mph - N/A   Clear
8:53 AM 73.0 °F - 66.9 °F 81% 30.28 in 10.0 mi ESE 8.1 mph - N/A   Clear
10:53 AM 80.1 °F 81.5 °F 63.0 °F 56% 30.24 in 10.0 mi SE 17.3 mph 25.3 mph N/A   Clear
11:53 AM 82.0 °F 83.0 °F 62.1 °F 51% 30.20 in 10.0 mi ESE 15.0 mph 24.2 mph N/A   Partly Cloudy
12:53 PM 82.9 °F 82.6 °F 57.9 °F 42% 30.18 in 10.0 mi ESE 15.0 mph 23.0 mph N/A   Partly Cloudy
1:53 PM 82.0 °F 82.1 °F 59.0 °F 45% 30.19 in 10.0 mi SE 12.7 mph - N/A   Mostly Cloudy
2:53 PM 84.0 °F 83.8 °F 59.0 °F 43% 30.19 in 10.0 mi SE 11.5 mph 17.3 mph N/A   Partly Cloudy
3:53 PM 81.0 °F 81.6 °F 60.1 °F 49% 30.20 in 10.0 mi SE 6.9 mph - N/A   Scattered Clouds
4:53 PM 80.1 °F 80.9 °F 60.1 °F 50% 30.22 in 10.0 mi ESE 8.1 mph - N/A   Mostly Cloudy
5:53 PM 77.0 °F - 60.1 °F 56% 30.22 in 10.0 mi ESE 8.1 mph - N/A   Clear
6:53 PM 75.0 °F - 60.1 °F 60% 30.23 in 10.0 mi ESE 9.2 mph - N/A   Clear
7:53 PM 73.9 °F - 61.0 °F 64% 30.24 in 10.0 mi ESE 10.4 mph - N/A   Clear
8:53 PM 72.0 °F - 61.0 °F 68% 30.25 in 10.0 mi East 5.8 mph - N/A   Clear
9:53 PM 69.1 °F - 61.0 °F 75% 30.27 in 10.0 mi East 5.8 mph - N/A   Clear
10:53 PM 68.0 °F - 62.1 °F 81% 30.27 in 10.0 mi East 6.9 mph - N/A   Clear
11:53 PM 66.9 °F - 63.0 °F 87% 30.27 in 10.0 mi East 6.9 mph - N/A   Clear